Simultaneous Nadir Overpasses (SNOs) Predictions

Prediction of SNOs between AQUA and METOP-C Satellite Orbit:

Table of predicted SNOs for the next 14.0 days since TLE Epoch: 6/8/2024
Index Date (AQUA) Time (AQUA) Lat,Lon (AQUA) SZA (AQUA ) Date (METOP-C) Time (METOP-C) Lat,Lon (METOP-C) SZA (METOP-C ) Distance(km) Time Diff (sec)
1 06/09/2024 14:16:22 -75.40, 144.40 127.68 06/09/2024 14:15:52 -75.39, 144.40 127.69 0.88 30
2 06/09/2024 15:05:46 75.45, -48.08 52.37 06/09/2024 15:06:31 75.44, -48.12 52.36 1.45 45
3 06/12/2024 05:37:32 75.39, 94.19 52.13 06/12/2024 05:36:50 75.40, 94.19 52.14 1.27 42
4 06/12/2024 06:26:54 -75.44, -98.30 127.82 06/12/2024 06:27:31 -75.44, -98.38 127.83 2.36 37
5 06/14/2024 20:58:39 -75.42, 43.87 127.98 06/14/2024 20:57:50 -75.39, 43.92 128.00 3.36 49
6 06/14/2024 21:48:03 75.48,-148.64 52.09 06/14/2024 21:48:28 75.47,-148.50 52.08 4.04 25
7 06/17/2024 12:19:45 75.40, -6.31 51.93 06/17/2024 12:18:47 75.40, -6.28 51.93 0.99 58
8 06/17/2024 13:09:07 -75.45, 161.23 128.03 06/17/2024 13:09:28 -75.45, 161.20 128.03 1.06 21
9 06/20/2024 03:40:48 -75.41, -56.53 128.11 06/20/2024 03:39:46 -75.43, -56.45 128.09 3.21 62
10 06/20/2024 04:30:11 75.43, 111.05 51.92 06/20/2024 04:30:25 75.44, 110.94 51.94 3.42 14



Historial Predications of SNOs between AQUA and METOP-C
